Showing default

SNUGLITE, 43784

Orbit data source: Space-Track

SNUGLITE, 43784 is a payload satellite owned by SNU (KR) in SSO that was launched on Mon, 03 Dec 2018 UTC via an FALCON 9 launch vehicle from the Air Force Western Test Range (AFWTR). Payload-class satellites include a variety of spacecraft equipped with specific instruments for various scientific and technological missions. These include communications satellites like Starlink; space stations such as the ISS; scientific satellites like the Hubble; Earth observation satellites from companies like Planet Labs, Umbra, and HawkEye 360; GPS; miniature CubeSats for education and research; and military/defense satellites.

Loading next visibility...
Identifier
43784, 2018-099AC
Orbit
SSO
Country
Flag of KRKR / SKOR
Related business
Manufacturer
SNU
Mission
Operational Amateur Technology
Bus & Motor
CUBESAT 2U, Unknown motor
Mass
2 kg wet, 2 kg dry
Launch date (UTC)
2018-12-03 (7 years ago)
Launch vehicle
FALCON 9
Launch site
Air Force Western Test Range (AFWTR)
Object type
Payload
Rocket body
Debris
Shape & HBR
Box + 1 Rod, 0.2 m
Radar Cross Section
0.025 m², Small (<0.1 m²)

Expand to show TLE details & history
Last TLE update: 9 hours ago

TLE from 9 hours ago
0 SNUGLITE
1 43784U 18099AC  26120.62301173  .00012502  00000-0  48672-3 0  9997
2 43784  97.3910 175.3995 0004544 100.4524 259.7227 15.26124840406062
Epoch: 2026-04-30T14:57Z
TLE epoch observation values (Epoch: 2026-04-30T14:57:08.213Z)
Latitude
Longitude
92.54831°
Altitude
491.067 km
Speed
7.619 km/s
True Right ascension
11h 41m 35s
True Declination
0° 00' 00"
Sunlit
Object was in full shadow at epoch
Visualization orbit readout
Latitude
Unknown
Longitude
Unknown
Altitude
Unknown
Speed
Unknown
Apparent Right ascension
Unknown
Apparent Declination
Unknown
Sunlit
N/A
Visualization observer readout
Local Sidereal Time
07:41:42
Azimuth
Unknown
Elevation
Unknown
Doppler factor
Unknown
Orbital elements
Apogee altitude
487.485 km
Perigee altitude
481.249 km
Semi-major axis
6,862.504 km
Eccentricity
0.00045
Inclination
97.391°
RAAN
175.3995°
Arg. of periapsis
100.4524°
True anomaly
259.67147°
Mean anomaly
259.7227°
Eccentric anomaly
259.69708°
Mean motion
3.81785 °/min
Orbital period
94.29 mins
BSTAR
0.00048672
Loading maneuver chart data...
Computing Atmospheric mass density...
Loading historical data...
Loading historical data...
Loading historical data...
Loading historical data...
Loading historical data...
Loading historical data...
Loading historical data...

Documentation

Showing up to 5 results
|